Location: Caltech
(34.1382°N, 118.1253°W)
Time: 11:40:01
(UTC-07:00)

Aureole 2 Rocket - Visible Passes

Search period start: 29 September 2016 00:00
Search period end: 09 October 2016 00:00
Orbit: 332 x 602 km, 73.9° (Epoch: 29 September)

Date Brightness Start Highest point End Pass type
(mag) Time Alt. Az. Time Alt. Az. Time Alt. Az.
29 Sep 2.0 05:24:45 10° NNW 05:28:02 67° WSW 05:31:00 10° S visible
29 Sep 4.2 19:01:09 10° SW 19:05:23 48° WNW 19:09:34 10° N visible
01 Oct 6.4 19:39:12 10° WNW 19:40:07 11° WNW 19:41:02 10° NW visible
02 Oct 5.9 19:06:28 10° WSW 19:09:17 17° WNW 19:12:04 10° NNW visible
